{"data":{"norad_id":63581,"intl_designator":"2025-076N","name":"STARLINK-33714","alt_names":[],"object_type":"PAYLOAD","status":"ACTIVE","operator":null,"country":"US","launch_date":"2025-04-14","launch_site_code":"AFETR","launch_vehicle":null,"mission":null,"orbit_class":"UNKNOWN","rcs_meters":null,"size_class":null,"mass_kg":null,"dimensions":null,"purposes":["comms"],"wikipedia_slug":null,"has_3d_model":false,"image_url":null,"decayed_at":null,"tle_current":{"epoch":"2026-05-25T00:05:16.585152Z","epoch_age_seconds":78022,"freshness":"FRESH","line1":"1 63581U 25076N   26145.00366418  .00009388  00000+0  35020-3 0  9999","line2":"2 63581  43.0041 250.5408 0001236 277.4597  82.6114 15.27583816 63506","mean_motion":15.27583816,"eccentricity":0.0001236,"inclination_deg":43.0041,"raan_deg":250.5408,"arg_perigee_deg":277.4597,"mean_anomaly_deg":82.6114,"bstar":0.0003502,"rev_number":6350,"period_min":94.266513229412,"perigee_km":482.18962839748,"apogee_km":483.8857107758,"semimajor_km":6861.1746695866,"source":"CELESTRAK","updated_at":"2026-05-25T13:38:20.047997Z"}}}